H1 CPF 2 NER 2023 1 16 9 016 01 glonass139 H2 1808601 9139 43687 2023 1 16 0 0 0 2023 1 19 23 45 0 900 1 1 0 0 0 1 H9 10 0 59960 0.00000 0 -15883025.374 14524338.832 13702154.204 10 0 59960 900.00000 0 -14936195.433 12945259.286 16135933.484 10 0 59960 1800.00000 0 -13991988.416 11046033.570 18256564.243 10 0 59960 2700.00000 0 -13104673.452 8859346.921 20022955.995 10 0 59960 3600.00000 0 -12322622.545 6428960.390 21400896.525 10 0 59960 4500.00000 0 -11686227.130 3808136.666 22363707.598 10 0 59960 5400.00000 0 -11226168.730 1057673.989 22892755.202 10 0 59960 6300.00000 0 -10962115.576 -1756371.104 22977805.291 10 0 59960 7200.00000 0 -10901899.251 -4565178.705 22617218.729 10 0 59960 8100.00000 0 -11041205.362 -7299775.906 21817982.110 10 0 59960 9000.00000 0 -11363790.936 -9893655.691 20595573.889 10 0 59960 9900.00000 0 -11842219.375 -12285296.899 18973668.230 10 0 59960 10800.00000 0 -12439082.298 -14420481.941 16983681.784 10 0 59960 11700.00000 0 -13108657.352 -16254317.054 14664171.437 10 0 59960 12600.00000 0 -13798932.720 -17752871.877 12060093.886 10 0 59960 13500.00000 0 -14453913.649 -18894370.781 9221940.569 10 0 59960 14400.00000 0 -15016114.171 -19669886.758 6204763.876 10 0 59960 15300.00000 0 -15429129.158 -20083509.220 3067113.076 10 0 59960 16200.00000 0 -15640178.073 -20151978.984 -130099.813 10 0 59960 17100.00000 0 -15602512.646 -19903806.040 -3324782.290 10 0 59960 18000.00000 0 -15277586.114 -19377907.402 -6454868.580 10 0 59960 18900.00000 0 -14636891.438 -18621822.695 -9459528.045 10 0 59960 19800.00000 0 -13663389.707 -17689582.932 -12280350.862 10 0 59960 20700.00000 0 -12352467.147 -16639322.717 -14862487.323 10 0 59960 21600.00000 0 -10712378.917 -15530736.905 -17155718.212 10 0 59960 22500.00000 0 -8764159.525 -14422489.334 -19115435.027 10 0 59960 23400.00000 0 -6541002.195 -13369683.206 -20703510.705 10 0 59960 24300.00000 0 -4087131.802 -12421499.952 -21889043.814 10 0 59960 25200.00000 0 -1456217.252 -11619106.202 -22648961.711 10 0 59960 26100.00000 0 1290611.423 -10993917.078 -22968470.975 10 0 59960 27000.00000 0 4087059.492 -10566288.850 -22841346.439 10 0 59960 27900.00000 0 6864182.655 -10344695.861 -22270053.234 10 0 59960 28800.00000 0 9553016.681 -10325426.175 -21265699.454 10 0 59960 29700.00000 0 12087212.707 -10492808.486 -19847820.287 10 0 59960 30600.00000 0 14405568.990 -10819960.407 -18043997.638 10 0 59960 31500.00000 0 16454354.001 -11270026.268 -15889322.525 10 0 59960 32400.00000 0 18189324.575 -11797851.755 -13425710.551 10 0 59960 33300.00000 0 19577355.423 -12352024.251 -10701083.705 10 0 59960 34200.00000 0 20597612.566 -12877192.165 -7768434.551 10 0 59960 35100.00000 0 21242222.430 -13316564.629 -4684791.216 10 0 59960 36000.00000 0 21516409.613 -13614485.240 -1510103.718 10 0 59960 36900.00000 0 21438098.655 -13718970.380 1693926.143 10 0 59960 37800.00000 0 21036997.869 -13584104.165 4865047.956 10 0 59960 38700.00000 0 20353205.057 -13172188.181 7941675.025 10 0 59960 39600.00000 0 19435395.044 -12455554.741 10864081.677 10 0 59960 40500.00000 0 18338666.435 -11417966.689 13575562.047 10 0 59960 41400.00000 0 17122139.045 -10055544.326 16023527.774 10 0 59960 42300.00000 0 15846403.675 -8377180.104 18160523.448 10 0 59960 43200.00000 0 14570931.599 -6404423.176 19945140.644 10 0 59960 44100.00000 0 13351552.457 -4170838.045 21342813.519 10 0 59960 45000.00000 0 12238105.919 -1720863.443 22326481.369 10 0 59960 45900.00000 0 11272364.906 891781.854 22877106.240 10 0 59960 46800.00000 0 10486316.493 3606081.001 22984036.400 10 0 59960 47700.00000 0 9900871.608 6356007.531 22645209.270 10 0 59960 48600.00000 0 9525056.715 9073026.596 21867190.311 10 0 59960 49500.00000 0 9355720.581 11688706.525 20665047.207 10 0 59960 50400.00000 0 9377767.970 14137333.530 19062061.569 10 0 59960 51300.00000 0 9564910.135 16358422.268 17089283.251 10 0 59960 52200.00000 0 9880900.588 18299018.992 14784935.179 10 0 59960 53100.00000 0 10281204.304 19915702.246 12193679.410 10 0 59960 54000.00000 0 10715030.349 21176198.445 9365757.808 10 0 59960 54900.00000 0 11127642.462 22060545.342 6356023.177 10 0 59960 55800.00000 0 11462850.278 22561754.952 3222879.143 10 0 59960 56700.00000 0 11665575.904 22685948.351 27148.971 10 0 59960 57600.00000 0 11684387.112 22451956.745 -3169104.864 10 0 59960 58500.00000 0 11473889.495 21890405.617 -6303787.206 10 0 59960 59400.00000 0 10996875.618 21042320.549 -9315979.095 10 0 59960 60300.00000 0 10226139.224 19957313.499 -12147125.108 10 0 59960 61200.00000 0 9145876.620 18691426.103 -14742175.468 10 0 59960 62100.00000 0 7752614.666 17304721.024 -17050660.291 10 0 59960 63000.00000 0 6055624.693 15858722.996 -19027674.724 10 0 59960 63900.00000 0 4076803.464 14413817.514 -20634755.459 10 0 59960 64800.00000 0 1850024.603 13026716.750 -21840631.494 10 0 59960 65700.00000 0 -580013.760 11748099.319 -22621834.524 10 0 59960 66600.00000 0 -3159398.185 10620523.053 -22963157.074 10 0 59960 67500.00000 0 -5826999.872 9676698.320 -22857949.586 10 0 59960 68400.00000 0 -8516782.958 8938194.064 -22308250.725 10 0 59960 69300.00000 0 -11160325.623 8414630.588 -21324748.334 10 0 59960 70200.00000 0 -13689449.632 8103392.401 -19926571.760 10 0 59960 71100.00000 0 -16038849.283 7989872.626 -18140919.415 10 0 59960 72000.00000 0 -18148610.485 8048238.000 -16002528.693 10 0 59960 72900.00000 0 -19966515.283 8242681.488 -13552998.396 10 0 59960 73800.00000 0 -21450036.021 8529108.888 -10839976.772 10 0 59960 74700.00000 0 -22567936.084 8857187.435 -7916231.093 10 0 59960 75600.00000 0 -23301410.872 9172668.994 -4838617.053 10 0 59960 76500.00000 0 -23644721.849 9419888.754 -1666968.439 10 0 59960 77400.00000 0 -23605297.900 9544332.931 1537070.771 10 0 59960 78300.00000 0 -23203300.793 9495166.040 4711248.553 10 0 59960 79200.00000 0 -22470674.066 9227610.166 7793917.315 10 0 59960 80100.00000 0 -21449716.481 8705074.992 10725232.539 10 0 59960 81000.00000 0 -20191241.053 7900948.144 13448314.009 10 0 59960 81900.00000 0 -18752397.907 6799969.795 15910347.023 10 0 59960 82800.00000 0 -17194253.054 5399133.251 18063602.339 10 0 59960 83700.00000 0 -15579225.018 3708073.171 19866355.570 10 0 59960 84600.00000 0 -13968486.730 1748924.522 21283688.940 10 0 59960 85500.00000 0 -12419441.172 -444342.451 22288160.635 10 0 59961 0.00000 0 -10983375.842 -2827084.146 22860329.714 10 0 59961 900.00000 0 -9703392.438 -5345596.321 22989127.461 10 0 59961 1800.00000 0 -8612699.197 -7939108.366 22672067.985 10 0 59961 2700.00000 0 -7733333.569 -10542081.790 21915295.431 10 0 59961 3600.00000 0 -7075369.546 -13086715.597 20733466.145 10 0 59961 4500.00000 0 -6636641.174 -15505556.988 19149468.254 10 0 59961 5400.00000 0 -6402993.237 -17734109.938 17193983.541 10 0 59961 6300.00000 0 -6349048.141 -19713334.253 14904899.369 10 0 59961 7200.00000 0 -6439456.570 -21391931.860 12326581.266 10 0 59961 8100.00000 0 -6630579.189 -22728325.637 9509019.396 10 0 59961 9000.00000 0 -6872528.555 -23692248.592 6506864.648 10 0 59961 9900.00000 0 -7111485.104 -24265876.968 3378372.545 10 0 59961 10800.00000 0 -7292189.298 -24444459.891 184275.020 10 0 59961 11700.00000 0 -7360504.312 -24236418.972 -3013398.148 10 0 59961 12600.00000 0 -7265940.408 -23662913.478 -6152525.147 10 0 59961 13500.00000 0 -6964033.476 -22756889.231 -9172101.498 10 0 59961 14400.00000 0 -6418476.165 -21561651.052 -12013429.008 10 0 59961 15300.00000 0 -5602910.364 -20129018.800 -14621260.643 10 0 59961 16200.00000 0 -4502303.994 -18517144.570 -16944878.594 10 0 59961 17100.00000 0 -3113852.512 -16788082.901 -18939084.230 10 0 59961 18000.00000 0 -1447365.717 -15005216.242 -20565080.322 10 0 59961 18900.00000 0 474878.002 -13230643.834 -21791228.294 10 0 59961 19800.00000 0 2618805.377 -11522643.598 -22593665.762 10 0 59961 20700.00000 0 4939723.028 -9933313.415 -22956772.340 10 0 59961 21600.00000 0 7383945.452 -8506490.426 -22873474.773 10 0 59961 22500.00000 0 9890809.318 -7276035.167 -22345385.505 10 0 59961 23400.00000 0 12394990.841 -6264551.974 -21382771.956 10 0 59961 24300.00000 0 14829030.258 -5482598.604 -20004357.049 10 0 59961 25200.00000 0 17125958.675 -4928417.429 -18236954.714 10 0 59961 26100.00000 0 19221917.961 -4588198.621 -16114947.305 10 0 59961 27000.00000 0 21058664.591 -4436863.204 -13679614.969 10 0 59961 27900.00000 0 22585853.051 -4439331.969 -10978329.908 10 0 59961 28800.00000 0 23763003.411 -4552225.647 -8063631.344 10 0 59961 29700.00000 0 24561071.017 -4725923.462 -4992199.391 10 0 59961 30600.00000 0 24963552.872 -4906891.981 -1823748.136 10 0 59961 31500.00000 0 24967084.803 -5040184.754 1380139.921 10 0 59961 32400.00000 0 24581505.063 -5072006.035 4557214.861 10 0 59961 33300.00000 0 23829382.508 -4952229.245 7645771.835 10 0 59961 34200.00000 0 22745030.053 -4636762.971 10585850.906 10 0 59961 35100.00000 0 21373045.773 -4089663.864 13320400.628 10 0 59961 36000.00000 0 19766443.659 -3284906.725 15796382.711 10 0 59961 36900.00000 0 17984453.109 -2207736.749 17965796.412 10 0 59961 37800.00000 0 16090079.703 -855546.548 19786603.306 10 0 59961 38700.00000 0 14147529.414 761759.395 21223535.179 10 0 59961 39600.00000 0 12219603.702 2621928.672 22248770.197 10 0 59961 40500.00000 0 10365173.664 4691047.232 22842465.166 10 0 59961 41400.00000 0 8636837.763 6924720.291 22993134.447 10 0 59961 42300.00000 0 7078859.796 9269699.668 22697868.814 10 0 59961 43200.00000 0 5725471.861 11665891.043 21962390.513 10 0 59961 44100.00000 0 4599611.904 14048658.935 20800943.549 10 0 59961 45000.00000 0 3712147.433 16351334.747 19236021.155 10 0 59961 45900.00000 0 3061616.834 18507824.807 17297935.260 10 0 59961 46800.00000 0 2634498.268 20455210.911 15024235.553 10 0 59961 47700.00000 0 2405994.344 22136235.792 12458988.629 10 0 59961 48600.00000 0 2341299.151 23501570.466 9651930.296 10 0 59961 49500.00000 0 2397294.069 24511769.047 6657506.680 10 0 59961 50400.00000 0 2524600.722 25138829.262 3533822.182 10 0 59961 51300.00000 0 2669904.165 25367293.163 341514.301 10 0 59961 52200.00000 0 2778447.870 25194841.543 -2857423.002 10 0 59961 53100.00000 0 2796594.546 24632356.673 -6000844.328 10 0 59961 54000.00000 0 2674343.805 23703450.319 -9027662.586 10 0 59961 54900.00000 0 2367699.320 22443476.468 -11879039.507 10 0 59961 55800.00000 0 1840784.336 20898069.962 -14499533.213 10 0 59961 56700.00000 0 1067614.920 19121272.215 -16838180.093 10 0 59961 57600.00000 0 33454.732 17173322.583 -18849489.549 10 0 59961 58500.00000 0 -1264307.202 15118208.034 -20494331.943 10 0 59961 59400.00000 0 -2815794.130 13021073.790 -21740702.354 10 0 59961 60300.00000 0 -4598811.355 10945603.348 -22564345.259 10 0 59961 61200.00000 0 -6579542.361 8951477.444 -22949227.994 10 0 59961 62100.00000 0 -8713743.423 7092018.017 -22887853.906 10 0 59961 63000.00000 0 -10948387.872 5412115.275 -22381409.124 10 0 59961 63900.00000 0 -13223692.169 3946524.084 -21439740.115 10 0 59961 64800.00000 0 -15475439.910 2718600.168 -20081162.395 10 0 59961 65700.00000 0 -17637507.252 1739528.181 -18332103.970 10 0 59961 66600.00000 0 -19644484.542 1008072.955 -16226590.299 10 0 59961 67500.00000 0 -21434284.813 510863.230 -13805580.670 10 0 59961 68400.00000 0 -22950630.104 223194.658 -11116168.765 10 0 59961 69300.00000 0 -24145311.505 110316.999 -8210663.120 10 0 59961 70200.00000 0 -24980128.269 129149.909 -5145565.520 10 0 59961 71100.00000 0 -25428424.778 230353.562 -1980467.570 10 0 59961 72000.00000 0 -25476161.010 360665.405 1223112.509 10 0 59961 72900.00000 0 -25122471.960 465403.037 4402929.679 10 0 59961 73800.00000 0 -24379692.985 491026.332 7497224.580 10 0 59961 74700.00000 0 -23272850.642 387649.602 10445924.532 10 0 59961 75600.00000 0 -21838641.052 111396.875 13191809.433 10 0 59961 76500.00000 0 -20123939.285 -373499.756 15681619.817 10 0 59961 77400.00000 0 -18183902.803 -1092947.619 17867085.640 10 0 59961 78300.00000 0 -16079748.662 -2061661.003 19705856.345 10 0 59961 79200.00000 0 -13876297.480 -3282305.156 21162314.859 10 0 59961 80100.00000 0 -11639386.487 -4745153.103 22208260.517 10 0 59961 81000.00000 0 -9433259.027 -6428270.229 22823448.642 10 0 59961 81900.00000 0 -7318038.367 -8298219.702 22995977.174 10 0 59961 82800.00000 0 -5347390.005 -10311260.147 22722513.521 10 0 59961 83700.00000 0 -3566468.515 -12414986.714 22008357.717 10 0 59961 84600.00000 0 -2010233.081 -14550348.385 20867340.796 10 0 59961 85500.00000 0 -702200.684 -16653958.625 19321560.175 10 0 59962 0.00000 0 346312.240 -18660604.166 17400956.914 10 0 59962 900.00000 0 1136429.534 -20505849.481 15142741.209 10 0 59962 1800.00000 0 1681425.900 -22128626.416 12590679.152 10 0 59962 2700.00000 0 2005923.044 -23473705.086 9794250.234 10 0 59962 3600.00000 0 2144604.176 -24493940.255 6807693.654 10 0 59962 4500.00000 0 2140501.967 -25152200.272 3688960.367 10 0 59962 5400.00000 0 2042932.401 -25422897.267 498590.987 10 0 59962 6300.00000 0 1905162.112 -25293053.934 -2701458.884 10 0 59962 7200.00000 0 1781908.235 -24762861.475 -5849022.880 10 0 59962 8100.00000 0 1726777.094 -23845704.605 -8882933.967 10 0 59962 9000.00000 0 1789750.829 -22567651.878 -11744216.499 10 0 59962 9900.00000 0 2014829.147 -20966432.144 -14377236.452 10 0 59962 10800.00000 0 2437926.951 -19089939.650 -16730787.035 10 0 59962 11700.00000 0 3085117.830 -16994330.054 -18759088.182 10 0 59962 12600.00000 0 3971298.752 -14741786.940 -20422680.129 10 0 59962 13500.00000 0 5099333.537 -12398052.144 -21689193.595 10 0 59962 14400.00000 0 6459712.499 -10029822.966 -22533981.555 10 0 59962 15300.00000 0 8030743.765 -7702124.921 -22940600.317 10 0 59962 16200.00000 0 9779269.504 -5475769.429 -22901130.662 10 0 59962 17100.00000 0 11661878.120 -3405002.184 -22416332.844 10 0 59962 18000.00000 0 13626562.547 -1535439.871 -21495632.423 10 0 59962 18900.00000 0 15614756.013 97619.313 -20156937.179 10 0 59962 19800.00000 0 17563660.657 1470441.668 -18426288.480 10 0 59962 20700.00000 0 19408771.826 2571609.333 -16337353.797 10 0 59962 21600.00000 0 21086492.604 3402246.777 -13930770.039 10 0 59962 22500.00000 0 22536729.024 3975714.231 -11253350.436 10 0 59962 23400.00000 0 23705357.051 4316782.325 -8357170.475 10 0 59962 24300.00000 0 24546457.725 4460324.188 -5298550.866 10 0 59962 25200.00000 0 25024226.473 4449581.607 -2136957.673 10 0 59962 26100.00000 0 25114476.329 4334079.839 1066158.439 10 0 59962 27000.00000 0 24805671.960 4167280.540 4248560.688 10 0 59962 27900.00000 0 24099451.208 4004073.192 7348438.547 10 0 59962 28800.00000 0 23010612.556 3898212.110 10305609.818 10 0 59962 29700.00000 0 21566569.429 3899808.160 13062688.762 10 0 59962 30600.00000 0 19806294.600 4052981.762 15566197.491 10 0 59962 31500.00000 0 17778799.317 4393776.634 17767599.125 10 0 59962 32400.00000 0 15541210.997 4948422.499 19624233.146 10 0 59962 33300.00000 0 13156529.766 5732020.118 21100135.483 10 0 59962 34200.00000 0 10691157.266 6747704.122 22166728.203 10 0 59962 35100.00000 0 8212300.124 7986319.104 22803366.386 10 0 59962 36000.00000 0 5785355.296 9426623.024 22997732.446 10 0 59962 36900.00000 0 3471385.040 11036010.067 22746070.930 10 0 59962 37800.00000 0 1324785.201 12771723.584 22053259.751 10 0 59962 38700.00000 0 -608757.626 14582509.535 20932716.614 10 0 59962 39600.00000 0 -2293936.375 16410642.425 19406142.308 10 0 59962 40500.00000 0 -3707053.038 18194240.356 17503105.387 10 0 59962 41400.00000 0 -4836757.381 19869773.565 15260475.579 10 0 59962 42300.00000 0 -5684264.937 21374662.450 12721716.117 10 0 59962 43200.00000 0 -6263046.072 22649857.106 9936047.823 10 0 59962 44100.00000 0 -6597999.804 23642290.681 6957500.340 10 0 59962 45000.00000 0 -6724147.607 24307103.744 3843868.344 10 0 59962 45900.00000 0 -6684902.685 24609546.031 655592.551 10 0 59962 46800.00000 0 -6529988.110 24526475.184 -2545412.921 10 0 59962 47700.00000 0 -6313092.189 24047388.724 -5696963.891 10 0 59962 48600.00000 0 -6089360.686 23174945.026 -8737816.503 10 0 59962 49500.00000 0 -5912832.612 21924950.467 -11608860.739 10 0 59962 50400.00000 0 -5833928.736 20325812.401 -14254273.247 10 0 59962 51300.00000 0 -5897099.923 18417480.131 -16622606.642 10 0 59962 52200.00000 0 -6138735.594 16249917.561 -18667793.704 10 0 59962 53100.00000 0 -6585421.660 13881171.016 -20350046.563 10 0 59962 54000.00000 0 -7252622.473 11375112.586 -21636633.308 10 0 59962 54900.00000 0 -8143843.412 8798952.922 -22502516.822 10 0 59962 55800.00000 0 -9250310.381 6220627.051 -22930843.454 10 0 59962 56700.00000 0 -10551180.728 3706161.887 -22913272.115 10 0 59962 57600.00000 0 -12014277.660 1317134.745 -22450137.451 10 0 59962 58500.00000 0 -13597318.145 -891671.618 -21550443.924 10 0 59962 59400.00000 0 -15249583.494 -2874320.363 -20231690.883 10 0 59962 60300.00000 0 -16913963.101 -4595393.571 -18519531.886 10 0 59962 61200.00000 0 -18529285.948 -6031217.905 -16447274.756 10 0 59962 62100.00000 0 -20032842.225 -7170592.864 -14055231.978 10 0 59962 63000.00000 0 -21362989.247 -8014992.413 -11389933.941 10 0 59962 63900.00000 0 -22461732.023 -8578232.898 -8503220.457 10 0 59962 64800.00000 0 -23277169.829 -8885622.734 -5451228.369 10 0 59962 65700.00000 0 -23765705.627 -8972631.205 -2293295.298 10 0 59962 66600.00000 0 -23893925.108 -8883133.998 909198.596 10 0 59962 67500.00000 0 -23640066.143 -8667311.006 4094027.765 10 0 59962 68400.00000 0 -22995016.709 -8379286.512 7199333.479 10 0 59962 69300.00000 0 -21962799.378 -8074612.585 10164826.931 10 0 59962 70200.00000 0 -20560522.078 -7807702.966 12932959.550 10 0 59962 71100.00000 0 -18817797.376 -7629326.477 15450037.660 10 0 59962 72000.00000 0 -16775654.738 -7584266.173 17667259.948 10 0 59962 72900.00000 0 -14484991.347 -7709243.148 19541658.032 10 0 59962 73800.00000 0 -12004626.040 -8031192.534 21036922.590 10 0 59962 74700.00000 0 -9399037.279 -8565964.156 22124099.769 10 0 59962 75600.00000 0 -6735878.745 -9317502.510 22782145.353 10 0 59962 76500.00000 0 -4083375.048 -10277540.573 22998326.780 10 0 59962 77400.00000 0 -1507704.768 -11425820.589 22768465.922 10 0 59962 78300.00000 0 929521.729 -12730833.113 22097018.419 10 0 59962 79200.00000 0 3173586.376 -14151044.117 20996988.200 10 0 59962 80100.00000 0 5178694.101 -15636559.694 19489678.694 10 0 59962 81000.00000 0 6909627.117 -17131159.702 17604285.137 10 0 59962 81900.00000 0 8342955.171 -18574616.255 15377335.155 10 0 59962 82800.00000 0 9467752.306 -19905200.804 12851987.704 10 0 59962 83700.00000 0 10285791.155 -21062275.472 10077203.064 10 0 59962 84600.00000 0 10811207.392 -21988860.358 7106799.166 10 0 59962 85500.00000 0 11069648.983 -22634069.122 3998411.979 10 0 59963 0.00000 0 11096946.554 -22955310.262 812379.993 10 0 59963 900.00000 0 10937361.313 -22920161.106 -2389427.501 10 0 59963 1800.00000 0 10641484.843 -22507834.525 -5544811.075 10 0 59963 2700.00000 0 10263880.019 -21710176.220 -8592452.943 10 0 59963 3600.00000 0 9860563.178 -20532149.041 -11473111.579 10 0 59963 4500.00000 0 9486434.665 -18991783.050 -14130777.103 10 0 59963 5400.00000 0 9192767.048 -17119592.313 -16513764.218 10 0 59963 6300.00000 0 9024857.907 -14957481.837 -18575721.049 10 0 59963 7200.00000 0 9019947.119 -12557189.634 -20276533.896 10 0 59963 8100.00000 0 9205487.327 -9978328.342 -21583110.170 10 0 59963 9000.00000 0 9597841.334 -7286107.562 -22470024.263 10 0 59963 9900.00000 0 10201462.060 -4548831.523 -22920013.771 10 0 59963 10800.00000 0 11008590.304 -1835275.870 -22924316.527 10 0 59963 11700.00000 0 11999483.746 787947.651 -22482841.958 10 0 59963 12600.00000 0 13143168.117 3258929.266 -21604173.430 10 0 59963 13500.00000 0 14398679.518 5522796.965 -20305401.501 10 0 59963 14400.00000 0 15716746.078 7533753.363 -18611791.190 10 0 59963 15300.00000 0 17041838.525 9256729.459 -16556289.605 10 0 59963 16200.00000 0 18314503.558 10668587.260 -14178883.377 10 0 59963 17100.00000 0 19473881.881 11758822.139 -11525818.268 10 0 59963 18000.00000 0 20460304.692 12529736.726 -8648696.270 10 0 59963 18900.00000 0 21217859.041 12996080.518 -5603467.892 10 0 59963 19800.00000 0 21696813.637 13184171.857 -2449339.573 10 0 59963 20700.00000 0 21855802.509 13130540.765 752381.970 10 0 59963 21600.00000 0 21663674.138 12880151.372 3939485.445 10 0 59963 22500.00000 0 21100927.902 12484280.363 7050066.950 10 0 59963 23400.00000 0 20160677.125 11998142.237 10023734.009 10 0 59963 24300.00000 0 18849098.082 11478362.656 12802778.008 10 0 59963 25200.00000 0 17185345.995 10980407.311 15333292.096 10 0 59963 26100.00000 0 15200941.471 10556075.226 17566212.922 10 0 59963 27000.00000 0 12938652.902 10251162.386 19458266.432 10 0 59963 27900.00000 0 10450921.259 10103394.046 20972800.021 10 0 59963 28800.00000 0 7797892.602 10140712.529 22080485.677 10 0 59963 29700.00000 0 5045139.599 10379992.221 22759881.393 10 0 59963 30600.00000 0 2261165.904 10826235.494 22997840.858 10 0 59963 31500.00000 0 -485203.896 11472283.194 22789764.161 10 0 59963 32400.00000 0 -3127441.715 12299051.927 22139685.177 10 0 59963 33300.00000 0 -5603833.500 13276288.524 21060194.131 10 0 59963 34200.00000 0 -7859793.663 14363810.612 19572196.705 10 0 59963 35100.00000 0 -9849881.649 15513181.984 17704513.962 10 0 59963 36000.00000 0 -11539438.034 16669753.377 15493330.128 10 0 59963 36900.00000 0 -12905773.038 17774983.792 12981498.184 10 0 59963 37800.00000 0 -13938858.823 18768945.612 10217715.825 10 0 59963 38700.00000 0 -14641497.391 19592908.712 7255586.947 10 0 59963 39600.00000 0 -15028957.605 20191895.088 4152586.273 10 0 59963 40500.00000 0 -15128097.107 20517096.335 968946.748 10 0 59963 41400.00000 0 -14976006.467 20528051.729 -2233508.891 10 0 59963 42300.00000 0 -14618233.072 20194494.370 -5392569.534 10 0 59963 43200.00000 0 -14106660.098 19497786.605 -8446846.499 10 0 59963 44100.00000 0 -13497130.552 18431883.063 -11336969.797 10 0 59963 45000.00000 0 -12846917.265 17003779.510 -14006745.985 10 0 59963 45900.00000 0 -12212146.240 15233427.318 -16404254.677 10 0 59963 46800.00000 0 -11645282.793 13153115.854 -18482861.958 10 0 59963 47700.00000 0 -11192787.190 10806347.557 -20202130.652 10 0 59963 48600.00000 0 -10893039.285 8246251.728 -21528609.564 10 0 59963 49500.00000 0 -10774620.191 5533602.411 -22436486.342 10 0 59963 50400.00000 0 -10855023.888 2734522.382 -22908091.226 10 0 59963 51300.00000 0 -11139853.439 -82031.716 -22934241.985 10 0 59963 52200.00000 0 -11622536.031 -2846898.975 -22514423.423 10 0 59963 53100.00000 0 -12284569.116 -5493349.539 -21656797.946 10 0 59963 54000.00000 0 -13096287.548 -7959616.565 -20378046.980 10 0 59963 54900.00000 0 -14018119.587 -10191220.004 -18703046.183 10 0 59963 55800.00000 0 -15002278.964 -12142985.993 -16664380.676 10 0 59963 56700.00000 0 -15994821.730 -13780678.468 -14301709.538 10 0 59963 57600.00000 0 -16937981.085 -15082175.787 -11660991.868 10 0 59963 58500.00000 0 -17772681.494 -16038144.190 -8793589.530 10 0 59963 59400.00000 0 -18441125.691 -16652181.126 -5755264.180 10 0 59963 60300.00000 0 -18889344.994 -16940423.816 -2605088.413 10 0 59963 61200.00000 0 -19069604.821 -16930640.933 595707.266 10 0 59963 62100.00000 0 -18942563.405 -16660847.115 3784928.673 10 0 59963 63000.00000 0 -18479092.199 -16177500.145 6900629.633 10 0 59963 63900.00000 0 -17661680.862 -15533358.099 9882316.927 10 0 59963 64800.00000 0 -16485367.284 -14785087.957 12672124.784 10 0 59963 65700.00000 0 -14958153.277 -13990727.383 15215935.970 10 0 59963 66600.00000 0 -13100888.177 -13207107.202 17464427.730 10 0 59963 67500.00000 0 -10946624.947 -12487343.391 19374022.736 10 0 59963 68400.00000 0 -8539475.242 -11878504.088 20907727.205 10 0 59963 69300.00000 0 -5933010.753 -11419549.416 22035840.718 10 0 59963 70200.00000 0 -3188276.696 -11139630.219 22736524.874 10 0 59963 71100.00000 0 -371499.132 -11056816.602 22996220.631 10 0 59963 72000.00000 0 2448419.619 -11177309.147 22809906.961 10 0 59963 72900.00000 0 5202514.786 -11495165.542 22181196.307 10 0 59963 73800.00000 0 7824375.094 -11992553.934 21122265.201 10 0 59963 74700.00000 0 10252653.535 -12640522.492 19653621.283 10 0 59963 75600.00000 0 12433370.106 -13400253.208 17803710.836 10 0 59963 76500.00000 0 14321912.026 -14224747.791 15608373.755 10 0 59963 77400.00000 0 15884649.162 -15060875.439 13110155.750 10 0 59963 78300.00000 0 17100098.262 -15851696.925 10357490.255 10 0 59963 79200.00000 0 17959588.041 -16538967.704 7403765.058 10 0 59963 80100.00000 0 18467397.807 -17065714.797 4306291.179 10 0 59963 81000.00000 0 18640364.252 -17378778.860 1125193.534 10 0 59963 81900.00000 0 18506973.263 -17431213.838 -2077755.297 10 0 59963 82800.00000 0 18105975.239 -17184442.332 -5240335.409 10 0 59963 83700.00000 0 17484582.580 -16610074.803 -8301090.460 10 0 59963 84600.00000 0 16696325.682 -15691314.659 -11200525.183 10 0 59963 85500.00000 0 15798658.276 -14423888.725 -13882265.651 99